Location: *
(43.9905°S, 176.4941°W)
Time: 00:15:59
(UTC+00:00)

Cosmos 1726 Rocket - Pass Details

Date: 08 December 2019
Orbit: 602 x 630 km, 82.5° (Epoch: 27 January)

Event Time Altitude Azimuth Distance (km) Brightness Sun altitude
Exits shadow 10:41:16 39° 82° (E) 955 4.3 -22.1°
Maximum altitude 10:41:26 39° 88° (E) 952 4.3 -22.1°
Drops below altitude 10° 10:45:35 10° 156° (SSE) 2,012 6.9 -22.2°
Sets 10:47:55 0° 164° (SSE) 2,922 8.0 -22.3°
